This is the latest recevied weather packets stored in our database for station/object KD8OZS. If no packets are shown the sender has not sent any weather packets the latest 10 day(s).
| Time | Temp. | Humidity | Pressure | Rain* | Wind** | Luminosity | Snow |
|---|---|---|---|---|---|---|---|
| 1778124483 | 6.11° C | 88% | 1006.8 hPa | 0 mm | - | 0 W/m² | - |
| 1778124180 | 6.11° C | 88% | 1006.7 hPa | 0 mm | - | 0 W/m² | - |
| 1778123876 | 6.67° C | 87% | 1006.8 hPa | 0 mm | - | 0 W/m² | - |
| 1778123573 | 6.67° C | 87% | 1006.7 hPa | 0 mm | - | 0 W/m² | - |
| 1778123270 | 7.22° C | 86% | 1007 hPa | 0 mm | - | 0 W/m² | - |
| 1778122967 | 7.22° C | 86% | 1006.9 hPa | 0 mm | - | 0 W/m² | - |
| 1778122664 | 7.22° C | 85% | 1006.8 hPa | 0 mm | - | 0 W/m² | - |
| 1778122361 | 7.22° C | 84% | 1006.7 hPa | 0 mm | - | 0 W/m² | - |
| 1778122059 | 7.22° C | 83% | 1006.6 hPa | 0 mm | - | 0 W/m² | - |
| 1778121756 | 7.22° C | 80% | 1006.7 hPa | 0 mm | - | 0 W/m² | - |
| 1778121452 | 7.22° C | 79% | 1006.6 hPa | 0 mm | - | 0 W/m² | - |
| 1778121149 | 7.22° C | 81% | 1006.7 hPa | 0 mm | - | 0 W/m² | - |
| 1778120846 | 7.78° C | 83% | 1006.6 hPa | 0 mm | - | 0 W/m² | - |
| 1778120542 | 8.33° C | 82% | 1006.6 hPa | 0 mm | - | 0 W/m² | - |
| 1778120239 | 8.33° C | 80% | 1006.6 hPa | 0 mm | - | 0 W/m² | - |
| 1778119934 | 8.33° C | 79% | 1006.3 hPa | 0 mm | - | 0 W/m² | - |
| 1778119633 | 8.33° C | 79% | 1006.4 hPa | 0 mm | - | 0 W/m² | - |
| 1778119328 | 8.33° C | 80% | 1006.4 hPa | 0 mm | - | 0 W/m² | - |
| 1778119026 | 8.89° C | 82% | 1006.4 hPa | 0 mm | - | 0 W/m² | - |
| 1778118724 | 8.89° C | 80% | 1006.4 hPa | 0 mm | - | 0 W/m² | - |
| 1778118420 | 8.89° C | 81% | 1006.5 hPa | 0 mm | - | 0 W/m² | - |
| 1778118116 | 8.89° C | 82% | 1006.2 hPa | 0 mm | - | 0 W/m² | - |
| 1778117813 | 8.89° C | 78% | 1006 hPa | 0 mm | - | 0 W/m² | - |
| 1778117510 | 8.89° C | 78% | 1006.3 hPa | 0 mm | - | 0 W/m² | - |
| 1778117208 | 8.89° C | 77% | 1006 hPa | 0 mm | - | 0 W/m² | - |
* Rain latest hour (hover to see other rain measurements)
** Current wind speed in m/s (hover to see current wind gust speed)